Weather History for Sidney, NE

Change the Weather History Date:

Thursday, October 24, 2013

  Actual Average Record
Temperature  
Mean Temperature 41 °F 47 °F  
Max Temperature 57 °F 62 °F 83 °F (2014)
Min Temperature 24 °F 33 °F 11 °F (1980)
Degree Days  
Heating Degree Days 24 18  
Month to date heating degree days 419 330  
Since 1 July heating degree days 523 470  
Cooling Degree Days 0 0  
Month to date cooling degree days 0 1  
Year to date cooling degree days 918 827  
Moisture  
Dew Point 32 °F    
Average Humidity 74    
Maximum Humidity 100    
Minimum Humidity 47    
Precipitation  
Precipitation 0.00 in 0.03 in 0.43 in (1975)
Month to date precipitation 1.23 0.87  
Year to date precipitation 16.45 17.28  
Sea Level Pressure  
Sea Level Pressure 30.30 in    
Wind  
Wind Speed 7 mph (SSW)    
Max Wind Speed 16 mph    
Max Gust Speed 20 mph    
Visibility 8 miles    
Events      
T = Trace of Precipitation, MM = Missing Value Source: NWS Daily Summary

Daily Weather History Graph

Daily Weather History Graph

Search for Another Location

Airport:

Trip Planner

Search our weather history database for the weather conditions in past years. The results will help you decide how hot, cold, wet, or windy it might be!

Date:

Astronomy

Oct. 24, 2013 Rise Set
Actual Time 7:13 AM MDT 5:57 PM MDT
Civil Twilight 6:45 AM MDT 6:25 PM MDT
Nautical Twilight 6:13 AM MDT 6:57 PM MDT
Astronomical Twilight 5:41 AM MDT 7:29 PM MDT
Moon 10:22 PM MDT (10/24) 12:17 PM MDT (10/24)
Length of Visible Light 11h 39m
Length of Day
10h 43m
Waning Gibbous, 70% of the Moon is Illuminated
Oct 24
Waning Gibbous
Oct 26
Last Quarter
Nov 3
New
Nov 9
First Quarter
Nov 17
Full

Hourly Weather History & Observations

Time (MDT) Temp. Windchill Dew Point Humidity Pressure Visibility Wind Dir Wind Speed Gust Speed Precip Events Conditions
12:53 AM 28.9 °F - 28.0 °F 96% 30.26 in 10.0 mi Calm Calm - N/A   Clear
1:53 AM 32.0 °F - 30.0 °F 92% 30.26 in 10.0 mi Calm Calm - N/A   Clear
2:53 AM 30.0 °F 24.1 °F 28.0 °F 92% 30.27 in 8.0 mi WNW 5.8 mph - N/A   Clear
3:53 AM 28.0 °F - 27.0 °F 96% 30.27 in 9.0 mi Calm Calm - N/A   Clear
4:13 AM 26.6 °F - 24.8 °F 93% 30.28 in 2.0 mi Calm Calm - N/A   Clear
4:22 AM 28.4 °F 24.6 °F 26.6 °F 93% 30.28 in 7.0 mi NNW 3.5 mph - N/A   Clear
4:53 AM 28.9 °F 22.8 °F 27.0 °F 92% 30.27 in 8.0 mi NW 5.8 mph - N/A   Clear
5:53 AM 27.0 °F 21.6 °F 25.0 °F 92% 30.30 in 8.0 mi WNW 4.6 mph - N/A   Clear
6:53 AM 26.1 °F 21.9 °F 24.1 °F 92% 30.33 in 7.0 mi WNW 3.5 mph - N/A   Clear
7:53 AM 28.9 °F - 27.0 °F 92% 30.35 in 5.0 mi Calm Calm - N/A   Partly Cloudy
7:56 AM 28.4 °F 24.6 °F 26.6 °F 93% 30.30 in 1.5 mi WSW 3.5 mph - N/A   Scattered Clouds
7:59 AM 28.4 °F 24.6 °F 26.6 °F 93% 30.31 in 0.8 mi WSW 3.5 mph - N/A   Mist
8:35 AM 33.8 °F - 33.8 °F 100% 30.32 in 1.2 mi Calm Calm - N/A   Overcast
8:39 AM 33.8 °F - 33.8 °F 100% 30.32 in 3.0 mi Calm Calm - N/A   Mostly Cloudy
8:51 AM 37.4 °F - 35.6 °F 93% 30.32 in 8.0 mi Calm Calm - N/A   Scattered Clouds
8:53 AM 37.0 °F - 35.1 °F 93% 30.35 in 9.0 mi Calm Calm - N/A   Partly Cloudy
9:53 AM 43.0 °F 37.7 °F 37.0 °F 80% 30.35 in 10.0 mi SSE 9.2 mph - N/A   Scattered Clouds
10:53 AM 46.0 °F 41.0 °F 36.0 °F 68% 30.35 in 10.0 mi South 10.4 mph - N/A   Partly Cloudy
11:53 AM 48.0 °F - 37.0 °F 66% 30.34 in 10.0 mi SSE 8.1 mph - N/A   Clear
12:53 PM 52.0 °F - 37.9 °F 59% 30.31 in 10.0 mi South 8.1 mph - N/A   Clear
1:53 PM 54.0 °F - 37.0 °F 53% 30.27 in 10.0 mi SSW 4.6 mph - N/A   Clear
2:53 PM 55.9 °F - 36.0 °F 47% 30.26 in 10.0 mi South 8.1 mph - N/A   Scattered Clouds
3:53 PM 54.0 °F - 35.1 °F 49% 30.26 in 10.0 mi SSE 6.9 mph - N/A   Partly Cloudy
4:53 PM 53.1 °F - 36.0 °F 52% 30.26 in 10.0 mi SSE 11.5 mph - N/A   Clear
5:53 PM 46.9 °F - 35.1 °F 63% 30.29 in 10.0 mi South 8.1 mph - N/A   Clear
6:53 PM 39.0 °F 34.8 °F 32.0 °F 76% 30.33 in 10.0 mi South 5.8 mph - N/A   Clear
7:53 PM 37.9 °F 32.7 °F 33.1 °F 83% 30.34 in 10.0 mi South 6.9 mph - N/A   Clear
8:53 PM 37.9 °F 30.9 °F 34.0 °F 86% 30.32 in 10.0 mi South 10.4 mph - N/A   Clear
9:53 PM 37.9 °F 31.5 °F 34.0 °F 86% 30.30 in 10.0 mi South 9.2 mph - N/A   Clear
10:53 PM 36.0 °F 29.6 °F 33.1 °F 89% 30.29 in 10.0 mi South 8.1 mph - N/A   Clear
11:53 PM 36.0 °F 29.0 °F 33.1 °F 89% 30.27 in 10.0 mi South 9.2 mph - N/A   Clear